Location: Cheching
(60.0667°N, 164.2167°W)
Time: 12:50:25
(UTC+00:00)

NOAA 19 - Pass Details

Date: 19 January 2021
Orbit: 840 x 862 km, 99.2° (Epoch: 01 March)

Event Time Altitude Azimuth Distance (km) Brightness Sun altitude
Rises 17:44:46 0° 19° (NNE) 3,438 8.4 -12.9°
Reaches altitude 10° 17:47:13 10° 24° (NNE) 2,494 7.7 -12.6°
Maximum altitude 17:52:38 55° 102° (ESE) 1,020 6.1 -12.0°
Drops below altitude 10° 17:58:00 10° 180° (S) 2,465 7.9 -11.4°
Sets 18:00:24 0° 185° (S) 3,394 8.6 -11.1°
